Location: Manchester NH
(43.0000°N, 71.5000°W)
Time: 19:39:26
(UTC-04:00)

Hubble Space Telescope - Visible Passes

Search period start: 25 April 2019 00:00
Search period end: 05 May 2019 00:00
Orbit: 537 x 540 km, 28.5° (Epoch: 25 April)

Date Brightness Start Highest point End Pass type
(mag) Time Alt. Az. Time Alt. Az. Time Alt. Az.
27 Apr 3.1 05:01:41 10° S 05:02:17 10° S 05:02:53 10° SSE visible
28 Apr 3.1 04:50:44 10° S 04:51:38 11° S 04:52:31 10° SSE visible
29 Apr 3.0 04:40:02 10° SSW 04:40:58 11° S 04:41:55 10° SSE visible
30 Apr 3.0 04:29:45 10° S 04:30:19 10° S 04:31:07 10° S visible
01 May 3.1 04:19:53 10° S 04:19:53 10° S 04:19:53 10° S visible
